PGT1548 LTFJ-LTFO

Flight info

Callsign PGT1548
Flight time 1h 27m
Altitude 37000
Route VICEN UT380 ASMAP UL333 LATGA UT363 GURBU UL615 SIV UW706 TBN UN37 ODZOL
Aircraft A320/M-SDE3FGHIRWY/LB1

Departure

Time 2026-05-04 20:38
Airport Istanbul Sabiha Gökçen International Airport (LTFJ)

Arrival

Time 2026-05-04 22:05
Airport Rize–Artvin Airport (LTFO)
Time Latitude Longitude Altitude Speed Heading
2026-05-04 19:41 40.90645 29.31730 321 ft 0 kts 334°
2026-05-04 20:22 40.90641 29.31732 321 ft 3 kts 334°
2026-05-04 20:23 40.90617 29.31747 321 ft 4 kts 334°
2026-05-04 20:23 40.90595 29.31761 319 ft 3 kts 334°
2026-05-04 20:23 40.90577 29.31779 320 ft 4 kts 279°
2026-05-04 20:23 40.90583 29.31808 321 ft 4 kts 234°
2026-05-04 20:24 40.90596 29.31832 320 ft 0 kts 243°
2026-05-04 20:26 40.90593 29.31825 320 ft 3 kts 244°
2026-05-04 20:27 40.90581 29.31790 319 ft 4 kts 244°
2026-05-04 20:27 40.90571 29.31765 321 ft 3 kts 244°
2026-05-04 20:27 40.90558 29.31730 321 ft 10 kts 243°
2026-05-04 20:27 40.90527 29.31649 321 ft 7 kts 243°
2026-05-04 20:28 40.90507 29.31593 320 ft 6 kts 244°
2026-05-04 20:28 40.90485 29.31535 321 ft 7 kts 244°
2026-05-04 20:28 40.90459 29.31464 321 ft 12 kts 244°
2026-05-04 20:28 40.90432 29.31389 321 ft 8 kts 244°
2026-05-04 20:29 40.90410 29.31330 320 ft 6 kts 245°
2026-05-04 20:29 40.90381 29.31252 321 ft 11 kts 243°
2026-05-04 20:29 40.90348 29.31162 320 ft 11 kts 244°
2026-05-04 20:29 40.90319 29.31080 321 ft 9 kts 244°
2026-05-04 20:30 40.90294 29.31012 320 ft 7 kts 244°
2026-05-04 20:30 40.90267 29.30941 321 ft 10 kts 244°
2026-05-04 20:30 40.90246 29.30884 321 ft 5 kts 244°
2026-05-04 20:30 40.90222 29.30869 321 ft 5 kts 170°
2026-05-04 20:31 40.90186 29.30891 321 ft 6 kts 154°
2026-05-04 20:31 40.90155 29.30911 321 ft 4 kts 154°
2026-05-04 20:31 40.90125 29.30930 321 ft 6 kts 155°
2026-05-04 20:31 40.90087 29.30940 321 ft 6 kts 190°
2026-05-04 20:32 40.90051 29.30883 321 ft 8 kts 244°
2026-05-04 20:32 40.90028 29.30819 321 ft 8 kts 244°
2026-05-04 20:32 40.89990 29.30717 321 ft 15 kts 244°
2026-05-04 20:32 40.89943 29.30587 321 ft 17 kts 244°
2026-05-04 20:33 40.89890 29.30443 320 ft 18 kts 244°
2026-05-04 20:33 40.89833 29.30289 320 ft 19 kts 244°
2026-05-04 20:33 40.89773 29.30125 321 ft 20 kts 244°
2026-05-04 20:33 40.89711 29.29956 321 ft 19 kts 244°
2026-05-04 20:34 40.89651 29.29792 321 ft 20 kts 244°
2026-05-04 20:34 40.89594 29.29637 321 ft 16 kts 244°
2026-05-04 20:34 40.89542 29.29496 320 ft 18 kts 244°
2026-05-04 20:34 40.89491 29.29357 321 ft 14 kts 244°
2026-05-04 20:35 40.89461 29.29273 321 ft 8 kts 243°
2026-05-04 20:35 40.89421 29.29237 321 ft 6 kts 183°
2026-05-04 20:35 40.89380 29.29260 320 ft 8 kts 153°
2026-05-04 20:35 40.89335 29.29290 320 ft 6 kts 154°
2026-05-04 20:36 40.89300 29.29313 322 ft 2 kts 154°
2026-05-04 20:36 40.89294 29.29317 322 ft 4 kts 154°
2026-05-04 20:36 40.89279 29.29342 322 ft 5 kts 104°
2026-05-04 20:36 40.89288 29.29379 322 ft 4 kts 63°
2026-05-04 20:37 40.89309 29.29435 322 ft 17 kts 64°
2026-05-04 20:37 40.89477 29.29891 321 ft 92 kts 64°
2026-05-04 20:37 40.89845 29.30890 322 ft 147 kts 64°
2026-05-04 20:37 40.90352 29.32262 536 ft 174 kts 64°
2026-05-04 20:38 40.90879 29.33685 1287 ft 172 kts 62°
2026-05-04 20:38 40.91407 29.35123 1892 ft 180 kts 59°
2026-05-04 20:38 40.91997 29.36713 2192 ft 205 kts 59°
2026-05-04 20:38 40.92661 29.38505 2613 ft 229 kts 59°
2026-05-04 20:39 40.93315 29.40480 3411 ft 241 kts 71°
2026-05-04 20:39 40.93240 29.42751 4224 ft 261 kts 99°
2026-05-04 20:39 40.92735 29.45096 5077 ft 268 kts 101°
2026-05-04 20:39 40.92200 29.47480 5999 ft 272 kts 101°
2026-05-04 20:40 40.91652 29.49893 6890 ft 276 kts 101°
2026-05-04 20:40 40.91095 29.52336 7737 ft 279 kts 100°
2026-05-04 20:40 40.90529 29.54809 8586 ft 283 kts 101°
2026-05-04 20:40 40.89952 29.57324 9384 ft 288 kts 102°
2026-05-04 20:41 40.89366 29.59879 10172 ft 294 kts 102°
2026-05-04 20:41 40.88753 29.62559 10496 ft 316 kts 102°
2026-05-04 20:41 40.88097 29.65445 10750 ft 339 kts 102°
2026-05-04 20:41 40.87402 29.68478 11330 ft 348 kts 102°
2026-05-04 20:42 40.86687 29.71547 12095 ft 352 kts 102°
2026-05-04 20:42 40.85961 29.74652 12872 ft 355 kts 103°
2026-05-04 20:42 40.85231 29.77783 13637 ft 358 kts 102°
2026-05-04 20:42 40.84499 29.80940 14325 ft 361 kts 102°
2026-05-04 20:43 40.83758 29.84126 14999 ft 365 kts 102°
2026-05-04 20:43 40.83013 29.87338 15618 ft 368 kts 102°
2026-05-04 20:43 40.82259 29.90584 16252 ft 371 kts 102°
2026-05-04 20:43 40.81496 29.93853 16910 ft 374 kts 102°
2026-05-04 20:44 40.80724 29.97146 17529 ft 377 kts 102°
2026-05-04 20:44 40.79946 30.00470 18152 ft 381 kts 102°
2026-05-04 20:44 40.79161 30.03824 18697 ft 384 kts 102°
2026-05-04 20:44 40.78369 30.07204 19234 ft 386 kts 102°
2026-05-04 20:45 40.77574 30.10605 19762 ft 389 kts 101°
2026-05-04 20:45 40.76775 30.14017 20327 ft 391 kts 101°
2026-05-04 20:45 40.75971 30.17445 20864 ft 393 kts 101°
2026-05-04 20:45 40.75157 30.20899 21371 ft 396 kts 101°
2026-05-04 20:46 40.74334 30.24380 21847 ft 399 kts 101°
2026-05-04 20:46 40.73504 30.27879 22322 ft 402 kts 100°
2026-05-04 20:46 40.72666 30.31404 22806 ft 404 kts 100°
2026-05-04 20:46 40.71824 30.34950 23278 ft 407 kts 100°
2026-05-04 20:47 40.70978 30.38520 23716 ft 409 kts 100°
2026-05-04 20:47 40.70126 30.42110 24124 ft 413 kts 100°
2026-05-04 20:47 40.69258 30.45741 24471 ft 416 kts 100°
2026-05-04 20:47 40.68385 30.49380 24856 ft 419 kts 100°
2026-05-04 20:48 40.67505 30.53048 25233 ft 421 kts 100°
2026-05-04 20:48 40.66620 30.56734 25611 ft 423 kts 100°
2026-05-04 20:48 40.65726 30.60446 25983 ft 425 kts 100°
2026-05-04 20:48 40.64829 30.64159 26350 ft 427 kts 100°
2026-05-04 20:49 40.63927 30.67901 26692 ft 430 kts 100°
2026-05-04 20:49 40.63019 30.71663 27035 ft 432 kts 99°
2026-05-04 20:49 40.62153 30.75446 27391 ft 433 kts 98°
2026-05-04 20:49 40.61342 30.79231 27738 ft 433 kts 97°
2026-05-04 20:50 40.60557 30.83058 28076 ft 435 kts 97°
2026-05-04 20:50 40.59778 30.86918 28371 ft 437 kts 97°
2026-05-04 20:50 40.58993 30.90779 28690 ft 439 kts 97°
2026-05-04 20:50 40.58187 30.94662 28995 ft 441 kts 97°
2026-05-04 20:51 40.57363 30.98553 29345 ft 443 kts 98°
2026-05-04 20:51 40.56525 31.02460 29688 ft 445 kts 98°
2026-05-04 20:51 40.55680 31.06383 30003 ft 447 kts 98°
2026-05-04 20:51 40.54832 31.10324 30281 ft 449 kts 98°
2026-05-04 20:52 40.53980 31.14271 30566 ft 448 kts 98°
2026-05-04 20:52 40.53416 31.16884 30782 ft 448 kts 98°
2026-05-04 20:52 40.52566 31.20823 31103 ft 448 kts 98°
2026-05-04 20:52 40.51720 31.24751 31462 ft 447 kts 98°
2026-05-04 20:53 40.50872 31.28689 31789 ft 447 kts 99°
2026-05-04 20:53 40.50024 31.32618 32109 ft 447 kts 99°
2026-05-04 20:53 40.49173 31.36546 32448 ft 447 kts 99°
2026-05-04 20:53 40.48317 31.40467 32786 ft 446 kts 99°
2026-05-04 20:54 40.47459 31.44382 33092 ft 446 kts 99°
2026-05-04 20:54 40.46603 31.48298 33361 ft 446 kts 99°
2026-05-04 20:54 40.45752 31.52205 33633 ft 446 kts 99°
2026-05-04 20:54 40.44899 31.56129 33933 ft 446 kts 100°
2026-05-04 20:55 40.44048 31.60041 34170 ft 447 kts 100°
2026-05-04 20:55 40.43193 31.63965 34401 ft 448 kts 101°
2026-05-04 20:55 40.42330 31.67904 34625 ft 449 kts 101°
2026-05-04 20:55 40.41547 31.71852 34856 ft 445 kts 94°
2026-05-04 20:56 40.41166 31.75869 34965 ft 444 kts 91°
2026-05-04 20:56 40.40817 31.79894 34983 ft 444 kts 91°
2026-05-04 20:56 40.40121 31.87948 34986 ft 444 kts 92°
2026-05-04 20:57 40.39408 31.95999 34972 ft 444 kts 92°
2026-05-04 20:57 40.38635 32.03993 34972 ft 445 kts 93°
2026-05-04 20:58 40.37799 32.12030 34963 ft 445 kts 93°
2026-05-04 20:58 40.36959 32.20062 34983 ft 445 kts 94°
2026-05-04 20:59 40.36130 32.28107 34955 ft 446 kts 94°
2026-05-04 20:59 40.35298 32.36171 34942 ft 447 kts 94°
2026-05-04 21:00 40.34456 32.44242 34939 ft 447 kts 94°
2026-05-04 21:00 40.33604 32.52315 34943 ft 447 kts 94°
2026-05-04 21:01 40.32750 32.60393 34943 ft 447 kts 95°
2026-05-04 21:01 40.31893 32.68469 34932 ft 448 kts 95°
2026-05-04 21:02 40.31024 32.76553 34925 ft 448 kts 95°
2026-05-04 21:02 40.30150 32.84637 34928 ft 448 kts 95°
2026-05-04 21:03 40.29273 32.92724 34928 ft 449 kts 96°
2026-05-04 21:03 40.28385 33.00841 34923 ft 451 kts 96°
2026-05-04 21:04 40.27485 33.08969 34920 ft 451 kts 96°
2026-05-04 21:04 40.26580 33.17109 34913 ft 452 kts 96°
2026-05-04 21:05 40.25674 33.25254 34923 ft 452 kts 96°
2026-05-04 21:05 40.24758 33.33412 34905 ft 453 kts 96°
2026-05-04 21:06 40.23834 33.41573 34884 ft 454 kts 96°
2026-05-04 21:06 40.22901 33.49740 34885 ft 454 kts 97°
2026-05-04 21:07 40.21961 33.57909 34885 ft 454 kts 97°
2026-05-04 21:07 40.21027 33.66076 34870 ft 455 kts 97°
2026-05-04 21:08 40.20076 33.74258 34862 ft 455 kts 97°
2026-05-04 21:08 40.19111 33.82456 34859 ft 456 kts 97°
2026-05-04 21:09 40.18144 33.90642 34862 ft 456 kts 97°
2026-05-04 21:09 40.17172 33.98837 34859 ft 456 kts 97°
2026-05-04 21:10 40.16201 34.07031 34859 ft 456 kts 97°
2026-05-04 21:10 40.15226 34.15224 34858 ft 456 kts 97°
2026-05-04 21:11 40.14240 34.23409 34861 ft 456 kts 98°
2026-05-04 21:11 40.13246 34.31604 34850 ft 457 kts 98°
2026-05-04 21:12 40.12247 34.39806 34851 ft 457 kts 98°
2026-05-04 21:12 40.11242 34.47995 34849 ft 457 kts 98°
2026-05-04 21:13 40.10225 34.56188 34855 ft 457 kts 98°
2026-05-04 21:13 40.09205 34.64366 34851 ft 457 kts 98°
2026-05-04 21:14 40.08186 34.72562 34847 ft 457 kts 98°
2026-05-04 21:14 40.07158 34.80755 34843 ft 457 kts 99°
2026-05-04 21:15 40.06122 34.88947 34846 ft 457 kts 99°
2026-05-04 21:15 40.05081 34.97141 34835 ft 458 kts 99°
2026-05-04 21:16 40.04030 35.05332 34826 ft 458 kts 99°
2026-05-04 21:16 40.02974 35.13536 34838 ft 458 kts 99°
2026-05-04 21:17 40.01912 35.21731 34831 ft 458 kts 100°
2026-05-04 21:17 40.00857 35.29871 34832 ft 458 kts 100°
2026-05-04 21:18 39.99792 35.38041 34833 ft 457 kts 100°
2026-05-04 21:18 39.98716 35.46211 34829 ft 457 kts 101°
2026-05-04 21:19 39.97629 35.54369 34835 ft 457 kts 101°
2026-05-04 21:19 39.96541 35.62525 34824 ft 457 kts 101°
2026-05-04 21:20 39.95452 35.70691 34832 ft 457 kts 101°
2026-05-04 21:20 39.94356 35.78855 34833 ft 458 kts 101°
2026-05-04 21:21 39.93246 35.87026 34835 ft 458 kts 101°
2026-05-04 21:21 39.92130 35.95191 34856 ft 458 kts 101°
2026-05-04 21:22 39.91012 36.03364 34856 ft 458 kts 101°
2026-05-04 21:22 39.89891 36.11530 34872 ft 458 kts 101°
2026-05-04 21:23 39.88766 36.19682 34874 ft 457 kts 101°
2026-05-04 21:23 39.87625 36.27830 34879 ft 457 kts 102°
2026-05-04 21:24 39.86483 36.35971 34887 ft 457 kts 102°
2026-05-04 21:24 39.85346 36.44121 34888 ft 457 kts 102°
2026-05-04 21:25 39.84211 36.52256 34894 ft 457 kts 102°
2026-05-04 21:25 39.83080 36.60398 34876 ft 458 kts 102°
2026-05-04 21:26 39.81932 36.68552 34871 ft 458 kts 102°
2026-05-04 21:26 39.80765 36.76709 34871 ft 459 kts 102°
2026-05-04 21:27 39.79872 36.84919 34875 ft 461 kts 91°
2026-05-04 21:27 39.80931 36.93146 34861 ft 466 kts 71°
2026-05-04 21:28 39.83880 37.00661 34862 ft 468 kts 62°
2026-05-04 21:28 39.87093 37.08048 34865 ft 469 kts 62°
2026-05-04 21:29 39.90288 37.15447 34861 ft 469 kts 62°
2026-05-04 21:29 39.93474 37.22857 34855 ft 469 kts 62°
2026-05-04 21:30 39.96644 37.30232 34853 ft 469 kts 62°
2026-05-04 21:30 39.99839 37.37660 34857 ft 469 kts 62°
2026-05-04 21:31 40.04613 37.48796 34860 ft 470 kts 63°
2026-05-04 21:32 40.07791 37.56254 34859 ft 470 kts 63°
2026-05-04 21:32 40.10967 37.63703 34860 ft 470 kts 62°
2026-05-04 21:33 40.14163 37.71146 34865 ft 470 kts 62°
2026-05-04 21:33 40.17356 37.78596 34867 ft 470 kts 63°
2026-05-04 21:34 40.20537 37.86057 34866 ft 470 kts 63°
2026-05-04 21:34 40.23703 37.93525 34857 ft 470 kts 63°
2026-05-04 21:35 40.26869 38.01011 34857 ft 470 kts 63°
2026-05-04 21:35 40.30040 38.08500 34858 ft 470 kts 63°
2026-05-04 21:36 40.33206 38.15993 34862 ft 470 kts 63°
2026-05-04 21:36 40.36283 38.23557 34856 ft 470 kts 64°
2026-05-04 21:37 40.39306 38.31153 34856 ft 470 kts 64°
2026-05-04 21:37 40.41949 38.37396 34849 ft 471 kts 62°
2026-05-04 21:38 40.45209 38.44840 34853 ft 471 kts 62°
2026-05-04 21:38 40.48464 38.52313 34860 ft 471 kts 62°
2026-05-04 21:39 40.51673 38.59816 34861 ft 471 kts 63°
2026-05-04 21:39 40.54782 38.67405 34862 ft 471 kts 64°
2026-05-04 21:40 40.57849 38.75030 34871 ft 472 kts 64°
2026-05-04 21:40 40.60930 38.82653 34875 ft 472 kts 64°
2026-05-04 21:41 40.64027 38.90267 34870 ft 472 kts 64°
2026-05-04 21:41 40.67114 38.97896 34571 ft 471 kts 64°
2026-05-04 21:41 40.68641 39.01702 34349 ft 471 kts 64°
2026-05-04 21:42 40.70172 39.05522 34124 ft 470 kts 64°
2026-05-04 21:42 40.71701 39.09333 33892 ft 470 kts 64°
2026-05-04 21:42 40.73227 39.13145 33633 ft 470 kts 64°
2026-05-04 21:42 40.74750 39.16955 33355 ft 469 kts 64°
2026-05-04 21:43 40.76267 39.20755 33084 ft 469 kts 64°
2026-05-04 21:43 40.77788 39.24564 32818 ft 470 kts 64°
2026-05-04 21:43 40.79312 39.28378 32563 ft 470 kts 64°
2026-05-04 21:43 40.80837 39.32191 32300 ft 470 kts 64°
2026-05-04 21:44 40.82355 39.35999 32032 ft 469 kts 64°
2026-05-04 21:44 40.83871 39.39821 31775 ft 468 kts 65°
2026-05-04 21:44 40.85378 39.43633 30770 ft 472 kts 65°
2026-05-04 21:44 40.86906 39.47509 29896 ft 473 kts 65°
2026-05-04 21:45 40.88395 39.51276 29219 ft 466 kts 65°
2026-05-04 21:45 40.89890 39.55045 28552 ft 460 kts 65°
2026-05-04 21:45 40.91363 39.58760 27888 ft 454 kts 65°
2026-05-04 21:45 40.92816 39.62436 27243 ft 448 kts 65°
2026-05-04 21:46 40.94245 39.66064 26604 ft 443 kts 65°
2026-05-04 21:46 40.95660 39.69668 25978 ft 438 kts 65°
2026-05-04 21:46 40.97053 39.73221 25355 ft 434 kts 65°
2026-05-04 21:46 40.98416 39.76707 24737 ft 430 kts 65°
2026-05-04 21:47 40.99778 39.80211 24173 ft 426 kts 65°
2026-05-04 21:47 41.01066 39.83714 23600 ft 421 kts 66°
2026-05-04 21:47 41.02280 39.87212 23003 ft 416 kts 68°
2026-05-04 21:47 41.03444 39.90684 22479 ft 409 kts 68°
2026-05-04 21:48 41.04581 39.94105 22005 ft 403 kts 68°
2026-05-04 21:48 41.05704 39.97474 21520 ft 397 kts 68°
2026-05-04 21:48 41.06821 40.00790 21066 ft 391 kts 68°
2026-05-04 21:48 41.07932 40.04055 20621 ft 386 kts 68°
2026-05-04 21:49 41.09036 40.07279 20160 ft 382 kts 68°
2026-05-04 21:49 41.10130 40.10469 19703 ft 379 kts 68°
2026-05-04 21:49 41.11215 40.13635 19234 ft 376 kts 68°
2026-05-04 21:49 41.12290 40.16781 18767 ft 373 kts 68°
2026-05-04 21:50 41.13356 40.19913 18292 ft 372 kts 68°
2026-05-04 21:50 41.14415 40.23035 17760 ft 370 kts 68°
2026-05-04 21:50 41.15466 40.26139 17281 ft 367 kts 68°
2026-05-04 21:50 41.16508 40.29222 16787 ft 365 kts 68°
2026-05-04 21:51 41.17542 40.32286 16306 ft 363 kts 68°
2026-05-04 21:51 41.18572 40.35337 15810 ft 361 kts 68°
2026-05-04 21:51 41.19547 40.38395 15330 ft 358 kts 73°
2026-05-04 21:51 41.20119 40.41587 14884 ft 353 kts 84°
2026-05-04 21:52 41.20219 40.44805 14493 ft 347 kts 95°
2026-05-04 21:52 41.20053 40.47994 14018 ft 346 kts 96°
2026-05-04 21:52 41.19882 40.51167 13530 ft 345 kts 95°
2026-05-04 21:52 41.19713 40.54340 13020 ft 343 kts 95°
2026-05-04 21:53 41.19546 40.57482 12539 ft 340 kts 95°
2026-05-04 21:53 41.19381 40.60614 12047 ft 338 kts 95°
2026-05-04 21:53 41.19221 40.63722 11558 ft 336 kts 95°
2026-05-04 21:53 41.19059 40.66802 11059 ft 334 kts 95°
2026-05-04 21:54 41.18894 40.69877 10575 ft 332 kts 95°
2026-05-04 21:54 41.18731 40.72880 10455 ft 319 kts 96°
2026-05-04 21:54 41.18575 40.75754 10354 ft 306 kts 96°
2026-05-04 21:54 41.18423 40.78559 9984 ft 304 kts 96°
2026-05-04 21:55 41.18272 40.81351 9576 ft 303 kts 95°
2026-05-04 21:55 41.18201 40.84107 9377 ft 294 kts 86°
2026-05-04 21:55 41.18601 40.86718 9241 ft 285 kts 71°
2026-05-04 21:55 41.19448 40.89039 8858 ft 284 kts 59°
2026-05-04 21:56 41.20479 40.91294 8378 ft 278 kts 59°
2026-05-04 21:56 41.21452 40.93431 7928 ft 270 kts 59°
2026-05-04 21:56 41.22418 40.95557 7470 ft 261 kts 59°
2026-05-04 21:56 41.23330 40.97570 7049 ft 254 kts 59°
2026-05-04 21:57 41.24229 40.99553 6632 ft 247 kts 59°
2026-05-04 21:57 41.25099 41.01474 6222 ft 240 kts 59°
2026-05-04 21:57 41.25944 41.03348 5800 ft 233 kts 59°
2026-05-04 21:57 41.26751 41.05131 5679 ft 215 kts 59°
2026-05-04 21:58 41.27490 41.06767 5639 ft 201 kts 59°
2026-05-04 21:58 41.28201 41.08348 5588 ft 199 kts 59°
2026-05-04 21:58 41.28909 41.09922 5484 ft 198 kts 59°
2026-05-04 21:58 41.29566 41.11530 5406 ft 198 kts 72°
2026-05-04 21:59 41.29608 41.13290 5232 ft 188 kts 105°
2026-05-04 21:59 41.28958 41.14727 5083 ft 180 kts 137°
2026-05-04 21:59 41.27881 41.15475 4942 ft 175 kts 168°
2026-05-04 21:59 41.26684 41.15395 4808 ft 174 kts 199°
2026-05-04 22:00 41.25684 41.14525 4668 ft 175 kts 229°
2026-05-04 22:00 41.25126 41.13103 4536 ft 175 kts 251°
2026-05-04 22:00 41.24725 41.11558 4290 ft 177 kts 250°
2026-05-04 22:00 41.24345 41.10015 4110 ft 173 kts 253°
2026-05-04 22:01 41.23999 41.08477 3959 ft 173 kts 252°
2026-05-04 22:01 41.23629 41.06958 3727 ft 173 kts 251°
2026-05-04 22:01 41.23248 41.05441 3472 ft 173 kts 251°
2026-05-04 22:01 41.22863 41.03924 3251 ft 172 kts 251°
2026-05-04 22:02 41.22480 41.02425 2966 ft 170 kts 251°
2026-05-04 22:02 41.22102 41.00946 2698 ft 169 kts 251°
2026-05-04 22:02 41.21727 40.99478 2436 ft 167 kts 251°
2026-05-04 22:02 41.21357 40.98033 2202 ft 165 kts 251°
2026-05-04 22:03 41.20993 40.96616 1919 ft 156 kts 252°
2026-05-04 22:03 41.20656 40.95301 1680 ft 146 kts 252°
2026-05-04 22:03 41.20333 40.94042 1455 ft 142 kts 252°
2026-05-04 22:03 41.20016 40.92807 1219 ft 140 kts 251°
2026-05-04 22:04 41.19702 40.91584 990 ft 139 kts 251°
2026-05-04 22:04 41.19394 40.90370 759 ft 138 kts 252°
2026-05-04 22:04 41.19092 40.89167 525 ft 137 kts 250°
2026-05-04 22:04 41.18779 40.87975 301 ft 136 kts 250°
2026-05-04 22:05 41.18473 40.86794 106 ft 135 kts 251°
2026-05-04 22:05 41.18180 40.85652 29 ft 115 kts 252°
2026-05-04 22:05 41.18019 40.85019 25 ft 42 kts 250°
2026-05-04 22:05 41.17930 40.84689 26 ft 28 kts 251°
2026-05-04 22:06 41.17871 40.84462 26 ft 19 kts 251°
2026-05-04 22:06 41.17819 40.84418 25 ft 4 kts 162°
2026-05-04 22:06 41.17801 40.84426 26 ft 2 kts 162°
2026-05-04 22:06 41.17793 40.84429 25 ft 0 kts 162°
2026-05-04 22:07 41.17793 40.84430 25 ft 0 kts 162°
2026-05-04 22:12 41.17781 40.84435 29 ft 2 kts 162°
2026-05-04 22:12 41.17756 40.84445 27 ft 7 kts 162°
2026-05-04 22:12 41.17711 40.84467 28 ft 6 kts 160°
2026-05-04 22:12 41.17670 40.84485 27 ft 7 kts 161°
2026-05-04 22:13 41.17636 40.84500 28 ft 3 kts 161°
2026-05-04 22:13 41.17618 40.84518 28 ft 4 kts 119°
2026-05-04 22:13 41.17621 40.84547 27 ft 3 kts 73°
2026-05-04 22:13 41.17619 40.84571 25 ft 3 kts 117°
2026-05-04 22:14 41.17600 40.84586 28 ft 4 kts 156°
2026-05-04 22:14 41.17579 40.84595 26 ft 3 kts 162°
2026-05-04 22:14 41.17566 40.84601 27 ft 0 kts 161°